Location: D�derode
(51.8092°N, 10.1065°E)
Time: 06:45:52
(UTC+00:00)

USA 238 - Pass Details

Date: 01 December 2020
Orbit: 996 x 1216 km, 63.4° (Epoch: 22 January)

Event Time Altitude Azimuth Distance (km) Brightness Sun altitude
Rises 18:52:54 0° 226° (SW) 3,735 7.0 -33.0°
Reaches altitude 10° 18:55:26 10° 227° (SW) 2,805 6.3 -33.4°
Enters shadow 19:00:42 60° 237° (WSW) 1,188 4.0 -34.2°
